This is the latest recevied weather packets stored in our database for station/object HS6PNA-2. If no packets are shown the sender has not sent any weather packets the latest 1 day(s).
| Time | Temp. | Humidity | Pressure | Rain* | Wind** | Luminosity | Snow |
|---|---|---|---|---|---|---|---|
| 1778007012 | 33.33° C | 48% | 1003 hPa | - | 0 m/s | 0 W/m² | - |
| 1778006088 | 33.33° C | 49% | 1003 hPa | - | 0 m/s | 0 W/m² | - |
| 1778005163 | 33.33° C | 49% | 1003 hPa | - | 0 m/s | 0 W/m² | - |
| 1778004238 | 33.33° C | 48% | 1003 hPa | - | 0 m/s | 0 W/m² | - |
| 1778003314 | 33.33° C | 48% | 1003 hPa | - | 0 m/s | 0 W/m² | - |
| 1778002390 | 33.33° C | 48% | 1004 hPa | - | 0 m/s | 0 W/m² | - |
| 1778001465 | 33.33° C | 48% | 1004 hPa | - | 0 m/s | 0 W/m² | - |
| 1778000541 | 33.33° C | 48% | 1004 hPa | - | 0 m/s | 0 W/m² | - |
| 1777999616 | 33.89° C | 48% | 1005 hPa | - | 0 m/s | 0 W/m² | - |
| 1777998692 | 33.89° C | 47% | 1005 hPa | - | 0 m/s | 0 W/m² | - |
| 1777997767 | 33.89° C | 47% | 1005 hPa | - | 0 m/s | 0 W/m² | - |
| 1777996843 | 33.89° C | 47% | 1005 hPa | - | 0 m/s | 0 W/m² | - |
| 1777995918 | 33.89° C | 46% | 1005 hPa | - | 0 m/s | 0 W/m² | - |
| 1777994994 | 33.89° C | 46% | 1005 hPa | - | 0 m/s | 0 W/m² | - |
| 1777994069 | 33.33° C | 46% | 1005 hPa | - | 0 m/s | 0 W/m² | - |
| 1777993145 | 33.33° C | 47% | 1005 hPa | - | 0 m/s | 0 W/m² | - |
| 1777992219 | 33.33° C | 47% | 1005 hPa | - | 0 m/s | 0 W/m² | - |
| 1777991295 | 32.78° C | 45% | 1004 hPa | - | 0 m/s | 0 W/m² | - |
| 1777990370 | 31.67° C | 42% | 1004 hPa | - | 0 m/s | 0 W/m² | - |
| 1777989446 | 30° C | 43% | 1004 hPa | - | 0 m/s | 0 W/m² | - |
| 1777988521 | 31.67° C | 44% | 1004 hPa | - | 0 m/s | 0 W/m² | - |
| 1777987597 | 30.56° C | 37% | 1003 hPa | - | 0 m/s | 0 W/m² | - |
| 1777986672 | 30.56° C | 36% | 1003 hPa | - | 0 m/s | 0 W/m² | - |
| 1777985748 | 31.11° C | 34% | 1003 hPa | - | 0 m/s | 0 W/m² | - |
| 1777984824 | 31.67° C | 32% | 1003 hPa | - | 0 m/s | 0 W/m² | - |
* Rain since midnight (hover to see other rain measurements)
** Current wind speed in m/s (hover to see current wind gust speed)